IZ3LSV-13 Weather Reports


Display with metric or nautical units.
time (UTC)temp
F
wind
direction
speed
MPH
gust
MPH
rain 1hr
in
rain 24hr
in
rain mn
in
humidity
%
barometer
mb
20260507193159 68 323 0.0 2.0 0.00 0.00 0.00 1110.2
20260507192654 68 315 0.0 2.0 0.00 0.00 0.00 1110.2
20260507192149 69 315 0.0 2.0 0.00 0.00 0.00 1110.2
20260507191643 69 357 0.0 0.0 0.00 0.00 0.00 1110.2
20260507191138 69 240 0.0 0.0 0.00 0.00 0.00 1110.0
20260507190632 69 315 0.0 0.0 0.00 0.00 0.00 1109.9
20260507190127 69 293 0.0 0.0 0.00 0.00 0.00 1109.9
20260507185621 70 315 0.0 0.0 0.00 0.00 0.00 1109.9
20260507185116 70 315 0.0 0.0 0.00 0.00 0.00 1109.7
20260507184611 70 23 0.0 0.0 0.00 0.00 0.00 1109.6
20260507184114 70 315 0.0 0.0 0.00 0.00 0.00 1109.7
20260507183600 71 296 0.0 2.0 0.00 0.00 0.00 1109.3
20260507183054 71 284 0.0 2.0 0.00 0.00 0.00 1109.4
20260507182549 72 334 0.0 0.0 0.00 0.00 0.00 1109.3
20260507182044 72 89 0.0 0.0 0.00 0.00 0.00 1109.2
20260507181538 72 89 0.0 0.0 0.00 0.00 0.00 1109.1
20260507181033 73 89 0.0 0.0 0.00 0.00 0.00 1109.0
20260507180527 73 89 0.0 0.0 0.00 0.00 0.00 1108.9
20260507180022 73 89 0.0 0.0 0.00 0.00 0.00 1108.6
20260507175517 73 89 0.0 0.0 0.00 0.00 0.00 1108.7
20260507175011 73 89 0.0 0.0 0.00 0.00 0.00 1108.6
20260507174506 74 120 0.0 0.0 0.00 0.00 0.00 1108.6
20260507174000 75 225 0.0 0.0 0.00 0.00 0.00 1108.5
20260507173455 75 225 0.0 0.0 0.00 0.00 0.00 1108.4
20260507172949 76 225 0.0 0.0 0.00 0.00 0.00 1108.3
20260507172444 76 225 0.0 0.0 0.00 0.00 0.00 1108.4
20260507171939 76 225 0.0 0.0 0.00 0.00 0.00 1108.3
20260507171433 76 225 0.0 0.0 0.00 0.00 0.00 1108.4
20260507170928 76 225 0.0 0.0 0.00 0.00 0.00 1108.3
20260507170423 76 225 0.0 0.0 0.00 0.00 0.00 1108.5
20260507165916 76 270 0.0 0.0 0.00 0.00 0.00 1108.5
20260507165411 76 270 0.0 0.0 0.00 0.00 0.00 1108.7
20260507164905 76 270 0.0 0.0 0.00 0.00 0.00 1108.6
20260507164400 76 270 0.0 0.0 0.00 0.00 0.00 1108.6
20260507163854 76 270 0.0 0.0 0.00 0.00 0.00 1108.6
20260507163349 76 259 0.0 0.0 0.00 0.00 0.00 1108.4
20260507162843 76 134 0.0 0.0 0.00 0.00 0.00 1108.4
20260507162338 75 134 0.0 0.0 0.00 0.00 0.00 1108.5
20260507161833 75 134 0.0 0.0 0.00 0.00 0.00 1108.4
20260507161327 75 134 0.0 0.0 0.00 0.00 0.00 1108.4
20260507160822 74 134 0.0 0.0 0.00 0.00 0.00 1108.4
20260507160317 74 134 0.0 0.0 0.00 0.00 0.00 1108.3
20260507155811 74 134 0.0 0.0 0.00 0.00 0.00 1108.4
20260507155306 74 134 0.0 0.0 0.00 0.00 0.00 1108.4
20260507154800 74 134 0.0 0.0 0.00 0.00 0.00 1108.3
20260507154255 75 105 0.0 0.0 0.00 0.00 0.00 1108.2
20260507153749 75 109 0.0 0.0 0.00 0.00 0.00 1108.5
20260507153244 75 49 0.0 0.0 0.00 0.00 0.00 1108.4
20260507152739 76 0 0.0 0.0 0.00 0.00 0.00 1108.5
20260507152233 76 225 0.0 0.0 0.00 0.00 0.00 1108.4
20260507151728 76 225 0.0 4.0 0.00 0.00 0.00 1108.4
20260507151222 76 73 0.0 4.0 0.00 0.00 0.00 1108.4
20260507150717 77 212 0.0 5.0 0.00 0.00 0.00 1108.3
20260507150211 78 40 0.0 2.0 0.00 0.00 0.00 1108.0
20260507145705 78 109 0.0 0.0 0.00 0.00 0.00 1107.8
20260507145200 79 129 0.0 0.0 0.00 0.00 0.00 1107.8
20260507144654 79 0 0.0 0.0 0.00 0.00 0.00 1107.8
20260507144149 79 134 0.0 0.0 0.00 0.00 0.00 1107.7
20260507143650 80 104 0.0 0.0 0.00 0.00 0.00 1107.3
20260507143137 81 315 0.0 0.0 0.00 0.00 0.00 1107.2
20260507142631 81 130 0.0 0.0 0.00 0.00 0.00 1107.2
20260507142125 81 176 0.0 0.0 0.00 0.00 0.00 1107.0
20260507141620 81 44 0.0 0.0 0.00 0.00 0.00 1107.0
20260507141114 80 42 0.0 0.0 0.00 0.00 0.00 1107.2
20260507140608 80 25 0.0 0.0 0.00 0.00 0.00 1107.3
20260507135557 80 11 0.0 0.0 0.00 0.00 0.00 1107.4
20260507135052 80 46 0.0 2.0 0.00 0.00 0.00 1107.5
20260507134553 80 52 0.0 2.0 0.00 0.00 0.00 1107.5
20260507134041 79 60 0.0 2.0 0.00 0.00 0.00 1107.5
20260507133535 79 84 0.0 0.0 0.00 0.00 0.00 1107.6
20260507133030 79 0 0.0 2.0 0.00 0.00 0.00 1107.4
20260507132525 79 20 0.0 2.0 0.00 0.00 0.00 1107.4
20260507132019 79 78 0.0 0.0 0.00 0.00 0.00 1107.6
20260507131514 79 69 0.0 0.0 0.00 0.00 0.00 1107.7
20260507131008 79 45 0.0 0.0 0.00 0.00 0.00 1107.7
20260507130503 79 34 0.0 0.0 0.00 0.00 0.00 1107.7
20260507125958 79 114 0.0 0.0 0.00 0.00 0.00 1107.7
20260507125452 79 266 0.0 0.0 0.00 0.00 0.00 1107.7
20260507124948 79 89 0.0 0.0 0.00 0.00 0.00 1107.6
20260507124441 79 84 0.0 0.0 0.00 0.00 0.00 1107.6
20260507123936 79 57 0.0 0.0 0.00 0.00 0.00 1107.7
20260507123430 79 228 0.0 2.0 0.00 0.00 0.00 1107.7
20260507122925 79 48 0.0 2.0 0.00 0.00 0.00 1107.6
20260507122420 79 79 0.0 0.0 0.00 0.00 0.00 1107.8
20260507121914 79 45 0.0 0.0 0.00 0.00 0.00 1107.8
20260507121409 79 50 0.0 0.0 0.00 0.00 0.00 1107.8
20260507120909 79 55 0.0 0.0 0.00 0.00 0.00 1107.7
20260507120358 79 324 0.0 0.0 0.00 0.00 0.00 1107.8
20260507115853 79 47 0.0 0.0 0.00 0.00 0.00 1107.8
20260507115347 79 64 0.0 0.0 0.00 0.00 0.00 1107.7
20260507114842 79 139 0.0 0.0 0.00 0.00 0.00 1107.7
20260507114342 79 89 0.0 0.0 0.00 0.00 0.00 1107.6
20260507113831 79 45 0.0 0.0 0.00 0.00 0.00 1107.9
20260507113326 79 58 0.0 2.0 0.00 0.00 0.00 1107.8
20260507112820 79 0 0.0 0.0 0.00 0.00 0.00 1108.0
20260507112315 79 89 0.0 0.0 0.00 0.00 0.00 1108.1
20260507111809 79 37 0.0 0.0 0.00 0.00 0.00 1108.0
20260507111304 80 56 0.0 0.0 0.00 0.00 0.00 1108.1
20260507110758 80 5 0.0 0.0 0.00 0.00 0.00 1108.1
20260507110252 80 19 0.0 0.0 0.00 0.00 0.00 1108.1
20260507105746 80 0 0.0 0.0 0.00 0.00 0.00 1108.2
20260507105241 80 95 0.0 2.0 0.00 0.00 0.00 1108.1
20260507104736 80 21 0.0 2.0 0.00 0.00 0.00 1108.3
20260507104230 80 49 0.0 0.0 0.00 0.00 0.00 1108.2
20260507103725 80 45 0.0 0.0 0.00 0.00 0.00 1108.2
20260507103219 81 29 0.0 0.0 0.00 0.00 0.00 1108.3
20260507102714 81 79 0.0 0.0 0.00 0.00 0.00 1108.3
20260507102209 82 40 0.0 0.0 0.00 0.00 0.00 1108.3
20260507101703 82 56 0.0 0.0 0.00 0.00 0.00 1108.3
20260507101158 82 41 0.0 2.0 0.00 0.00 0.00 1108.4
20260507100652 82 58 0.0 2.0 0.00 0.00 0.00 1108.4
20260507100147 82 45 0.0 2.0 0.00 0.00 0.00 1108.3
20260507095642 81 58 0.0 0.0 0.00 0.00 0.00 1108.5
20260507095136 81 70 0.0 0.0 0.00 0.00 0.00 1108.3
20260507094631 80 89 0.0 0.0 0.00 0.00 0.00 1108.4
20260507094125 80 46 0.0 0.0 0.00 0.00 0.00 1108.3
20260507093620 79 45 0.0 0.0 0.00 0.00 0.00 1108.4
20260507093115 79 45 0.0 0.0 0.00 0.00 0.00 1108.3
20260507092609 79 62 0.0 0.0 0.00 0.00 0.00 1108.3
20260507092104 79 45 0.0 0.0 0.00 0.00 0.00 1108.3
20260507091558 79 134 0.0 0.0 0.00 0.00 0.00 1108.3
20260507091053 79 45 0.0 0.0 0.00 0.00 0.00 1108.3
20260507090547 79 32 0.0 0.0 0.00 0.00 0.00 1108.3
20260507090041 79 0 0.0 0.0 0.00 0.00 0.00 1108.3
20260507085536 79 0 0.0 0.0 0.00 0.00 0.00 1108.3
20260507085030 78 315 0.0 0.0 0.00 0.00 0.00 1108.2
20260507084525 78 329 0.0 0.0 0.00 0.00 0.00 1108.2
20260507084019 77 0 0.0 0.0 0.00 0.00 0.00 1108.2
20260507083514 76 0 0.0 0.0 0.00 0.00 0.00 1108.2
20260507083009 75 0 0.0 0.0 0.00 0.00 0.00 1108.1
20260507082503 75 0 0.0 2.0 0.00 0.00 0.00 1108.2
20260507081958 75 0 0.0 2.0 0.00 0.00 0.00 1108.1
20260507081452 75 327 0.0 0.0 0.00 0.00 0.00 1108.0
20260507080946 74 159 0.0 0.0 0.00 0.00 0.00 1108.0
20260507080441 74 315 0.0 0.0 0.00 0.00 0.00 1108.1
20260507075935 74 315 0.0 0.0 0.00 0.00 0.00 1108.0
20260507075429 75 315 0.0 3.0 0.00 0.00 0.00 1108.0
20260507074923 75 12 1.0 3.0 0.00 0.00 0.00 1108.0
20260507074733 75 276 0.0 0.0 0.00 0.00 0.00 1107.9
20260507074418 75 315 0.0 0.0 0.00 0.00 0.00 1108.0
20260507073912 75 276 0.0 0.0 0.00 0.00 0.00 1107.9
20260507073407 75 270 0.0 0.0 0.00 0.00 0.00 1108.0
20260507072902 75 155 0.0 2.0 0.00 0.00 0.00 1108.0
20260507072356 75 20 0.0 3.0 0.00 0.00 0.00 1108.0
20260507071345 74 351 0.0 3.0 0.00 0.00 0.00 1107.9
20260507070840 73 30 0.0 2.0 0.00 0.00 0.00 1108.0
20260507070334 73 30 0.0 4.0 0.00 0.00 0.00 1107.9
20260507065829 72 33 1.0 4.0 0.00 0.00 0.00 1107.9
20260507065323 72 358 0.0 2.0 0.00 0.00 0.00 1107.9
20260507064817 71 0 0.0 2.0 0.00 0.00 0.00 1107.9
20260507064312 71 46 0.0 0.0 0.00 0.00 0.00 1107.9
20260507063806 71 168 0.0 0.0 0.00 0.00 0.00 1107.8
20260507063301 71 35 0.0 0.0 0.00 0.00 0.00 1107.8
20260507062754 71 332 0.0 0.0 0.00 0.00 0.00 1107.7
20260507062249 71 12 0.0 0.0 0.00 0.00 0.00 1107.8
20260507061744 71 328 0.0 0.0 0.00 0.00 0.00 1107.7
20260507061238 72 356 0.0 0.0 0.00 0.00 0.00 1107.6
20260507060732 72 84 0.0 2.0 0.00 0.00 0.00 1107.5
20260507060226 72 61 0.0 2.0 0.00 0.00 0.00 1107.5
20260507055721 72 54 0.0 2.0 0.00 0.00 0.00 1107.5
20260507055215 72 340 0.0 3.0 0.00 0.00 0.00 1107.3
20260507054709 72 344 0.0 3.0 0.00 0.00 0.00 1107.2
20260507054204 73 64 0.0 0.0 0.00 0.00 0.00 1107.3
20260507053658 74 180 0.0 0.0 0.00 0.00 0.00 1107.1
20260507053153 74 315 0.0 0.0 0.00 0.00 0.00 1107.1
20260507052648 75 315 0.0 0.0 0.00 0.00 0.00 1107.0
20260507052142 72 252 0.0 0.0 0.00 0.00 0.00 1106.9
20260507051637 69 197 0.0 0.0 0.00 0.00 0.00 1106.8
20260507051131 68 13 0.0 0.0 0.00 0.00 0.00 1106.8
20260507050626 68 45 0.0 0.0 0.00 0.00 0.00 1106.6
20260507050120 68 44 0.0 0.0 0.00 0.00 0.00 1106.6
20260507045615 67 0 0.0 0.0 0.00 0.00 0.00 1106.7
20260507045110 67 0 0.0 0.0 0.00 0.00 0.00 1106.6
20260507044604 67 79 0.0 0.0 0.00 0.00 0.00 1106.4
20260507044059 67 3 0.0 0.0 0.00 0.00 0.00 1106.4
20260507043553 66 3 0.0 0.0 0.00 0.00 0.00 1106.3
20260507043048 66 3 0.0 0.0 0.00 0.00 0.00 1106.3
20260507042543 66 1 0.0 0.0 0.00 0.00 0.00 1106.3
20260507042037 66 0 0.0 0.0 0.00 0.00 0.00 1106.3
20260507041532 65 136 0.0 3.0 0.00 0.00 0.00 1106.3
20260507041026 65 200 0.0 3.0 0.00 0.00 0.00 1106.3
20260507040521 65 96 0.0 3.0 0.00 0.00 0.00 1106.2
20260507040016 65 315 0.0 3.0 0.00 0.00 0.00 1106.2
20260507035510 65 15 0.0 3.0 0.00 0.00 0.00 1106.1
20260507035005 65 317 0.0 3.0 0.00 0.00 0.00 1106.0
20260507034459 65 40 1.0 4.0 0.00 0.00 0.00 1106.0
20260507033954 65 55 1.0 6.0 0.00 0.00 0.00 1106.1
20260507033448 65 11 1.0 6.0 0.00 0.00 0.00 1106.1
20260507032942 65 182 1.0 5.0 0.00 0.00 0.00 1106.1
20260507032437 65 34 2.0 5.0 0.00 0.00 0.00 1106.1
20260507031931 65 36 0.0 2.0 0.00 0.00 0.00 1106.1
20260507031426 65 18 0.0 2.0 0.00 0.00 0.00 1106.1
20260507030920 64 268 0.0 3.0 0.00 0.00 0.00 1106.1
20260507030415 64 43 0.0 3.0 0.00 0.00 0.00 1106.2
20260507025908 64 63 0.0 3.0 0.00 0.00 0.00 1106.2
20260507025403 64 37 0.0 3.0 0.00 0.00 0.00 1106.1
20260507024352 64 23 0.0 3.0 0.00 0.00 0.00 1106.0
20260507023847 64 200 0.0 0.0 0.00 0.00 0.00 1106.1
20260507023341 64 0 0.0 0.0 0.00 0.00 0.00 1106.0
20260507022836 64 45 0.0 0.0 0.00 0.00 0.00 1106.0
20260507022331 64 0 0.0 0.0 0.00 0.00 0.00 1106.0
20260507021825 64 0 0.0 0.0 0.00 0.00 0.00 1106.1
20260507021320 64 0 0.0 0.0 0.00 0.00 0.00 1106.1
20260507020814 64 0 0.0 0.0 0.00 0.00 0.00 1106.2
20260507020309 64 0 0.0 0.0 0.00 0.00 0.00 1106.1
20260507015804 64 0 0.0 0.0 0.00 0.00 0.00 1106.1
20260507015258 64 45 0.0 0.0 0.00 0.00 0.00 1106.1
20260507014753 64 45 0.0 0.0 0.00 0.00 0.00 1106.1
20260507014247 64 45 0.0 2.0 0.00 0.00 0.00 1106.1
20260507013742 64 30 0.0 2.0 0.00 0.00 0.00 1105.9
20260507013237 64 14 0.0 2.0 0.00 0.00 0.00 1106.0
20260507012731 64 275 0.0 3.0 0.00 0.00 0.00 1105.9
20260507012226 65 0 0.0 2.0 0.00 0.00 0.00 1105.9
20260507011720 65 14 0.0 2.0 0.00 0.00 0.00 1106.0
20260507011215 65 0 0.0 0.0 0.00 0.00 0.00 1105.9
20260507010709 65 0 0.0 0.0 0.00 0.00 0.00 1106.0
20260507010204 65 315 0.0 0.0 0.00 0.00 0.00 1106.0
20260507005659 65 315 0.0 0.0 0.00 0.00 0.00 1106.0
20260507005153 65 315 0.0 0.0 0.00 0.00 0.00 1106.0
20260507004648 65 315 0.0 0.0 0.00 0.00 0.00 1106.1
20260507004142 65 315 0.0 0.0 0.00 0.00 0.00 1106.0
20260507003637 65 315 0.0 0.0 0.00 0.00 0.00 1105.9
20260507003132 65 315 0.0 0.0 0.00 0.00 0.00 1105.9
20260507002626 65 315 0.0 0.0 0.00 0.00 0.00 1105.8
20260507002121 65 315 0.0 0.0 0.00 0.00 0.00 1105.8
20260507001615 65 315 0.0 0.0 0.00 0.00 0.00 1105.8
20260507001110 65 315 0.0 0.0 0.00 0.00 0.00 1106.0
20260507000605 65 315 0.0 0.0 0.00 0.00 0.00 1105.9
20260507000059 66 315 0.0 0.0 0.00 0.00 0.00 1105.9
20260506235554 66 315 0.0 0.0 0.00 0.00 0.00 1105.9
20260506235048 66 315 0.0 0.0 0.00 0.00 0.00 1106.1
20260506234543 66 315 0.0 0.0 0.00 0.00 0.00 1106.0
20260506234037 66 315 0.0 0.0 0.00 0.00 0.00 1106.0
20260506233532 66 315 0.0 0.0 0.00 0.00 0.00 1106.0
20260506233026 66 315 0.0 0.0 0.00 0.00 0.00 1106.0
20260506232521 66 315 0.0 0.0 0.00 0.00 0.00 1106.1
20260506232016 66 315 0.0 0.0 0.00 0.00 0.00 1106.0
20260506231510 66 315 0.0 0.0 0.00 0.00 0.00 1106.1
20260506231005 66 315 0.0 0.0 0.00 0.00 0.00 1106.0
20260506230500 66 315 0.0 0.0 0.00 0.00 0.00 1106.0
20260506225954 66 315 0.0 0.0 0.00 0.00 0.00 1106.0
20260506225449 66 41 0.0 0.0 0.00 0.00 0.00 1106.1
20260506224943 66 5 0.0 0.0 0.00 0.00 0.00 1106.1
20260506224438 66 0 0.0 0.0 0.00 0.00 0.00 1106.0
20260506223932 66 150 0.0 0.0 0.00 0.00 0.00 1106.1
20260506223427 66 225 0.0 0.0 0.00 0.00 0.00 1106.0
20260506222921 66 149 0.0 0.0 0.00 0.00 0.00 1106.1
20260506222416 66 135 0.0 0.0 0.00 0.00 0.00 1106.2
20260506221405 67 270 0.0 0.0 0.00 0.00 0.00 1106.1
20260506220900 67 289 0.0 0.0 0.00 0.00 0.00 1106.1
20260506220354 67 24 0.0 0.0 0.00 0.00 0.00 1106.0
20260506215849 67 270 0.0 0.0 0.00 0.00 0.00 1106.0
20260506215343 67 270 0.0 0.0 0.00 0.00 0.00 1105.9
20260506214838 67 135 0.0 0.0 0.00 0.00 0.00 1105.9
20260506214333 67 135 0.0 0.0 0.00 0.00 0.00 1106.0
20260506213827 67 135 0.0 0.0 0.00 0.00 0.00 1105.8
20260506213322 67 251 0.0 0.0 0.00 0.00 0.00 1105.9
20260506212816 67 0 0.0 0.0 0.00 0.00 0.00 1106.0
20260506212311 67 0 0.0 0.0 0.00 0.00 0.00 1105.9
20260506211805 67 0 0.0 0.0 0.00 0.00 0.00 1106.0
20260506211300 67 0 0.0 0.0 0.00 0.00 0.00 1105.9
20260506210755 67 0 0.0 0.0 0.00 0.00 0.00 1105.9
20260506210248 67 0 0.0 0.0 0.00 0.00 0.00 1105.9
20260506205743 67 0 0.0 0.0 0.00 0.00 0.00 1105.8
20260506205237 68 0 0.0 0.0 0.00 0.00 0.00 1105.8
20260506204732 68 0 0.0 0.0 0.00 0.00 0.00 1105.9
20260506204227 68 0 0.0 0.0 0.00 0.00 0.00 1105.9
20260506203721 68 0 0.0 0.0 0.00 0.00 0.00 1106.0
20260506203216 68 0 0.0 0.0 0.00 0.00 0.00 1106.0
20260506202709 68 0 0.0 0.0 0.00 0.00 0.00 1105.8
20260506202204 68 0 0.0 0.0 0.00 0.00 0.00 1105.8
20260506201657 68 0 0.0 0.0 0.00 0.00 0.00 1105.8
20260506201152 68 0 0.0 0.0 0.00 0.00 0.00 1105.9
20260506200646 68 0 0.0 0.0 0.00 0.00 0.00 1105.8
20260506200141 68 0 0.0 0.0 0.00 0.00 0.00 1105.8
20260506195636 68 0 0.0 0.0 0.00 0.00 0.00 1105.7
20260506195130 68 0 0.0 0.0 0.00 0.00 0.00 1105.7
20260506194625 69 0 0.0 0.0 0.00 0.00 0.00 1105.7
20260506194120 69 0 0.0 0.0 0.00 0.00 0.00 1105.7
20260506193614 69 0 0.0 0.0 0.00 0.00 0.00 1105.7